This demonstration page uses our WeatherBlox Daily Observations layout. Learn more.

Hourly Observations for December 15, 2017

Temp ( °F °C ) Dew Point ( °F °C ) Humidity (%) Winds ( mph kmh ) Pressure ( in mb ) Visibility ( mi km ) Precip ( " mm )
12:53 am 00:53 Clear 19 -7.2 17 -8.3 92 92 Calm 30.12 1020 9 14.48406 0 0
1:53 am 01:53 Clear 21 -6.1 18 -7.8 88 88 Calm 30.1 1019 9 14.48406 0 0
2:53 am 02:53 Clear 21 -6.1 19 -7.2 92 92 Calm 30.09 1019 9 14.48406 0 0
3:53 am 03:53 Clear 21 -6.1 19 -7.2 92 92 Calm 30.08 1019 8 12.87472 0 0
4:53 am 04:53 Clear 19 -7.2 17 -8.3 92 92 Calm 30.09 1019 8 12.87472 0 0
5:53 am 05:53 Clear 18 -7.8 16 -8.9 92 92 Calm 30.08 1019 8 12.87472 0 0
6:53 am 06:53 Mostly Clear 18 -7.8 16 -8.9 92 92 Calm 30.07 1018 7 11.26538 0 0
7:53 am 07:53 Partly Cloudy with Mist and Fog 19 -7.2 18 -7.8 96 96 Calm 30.07 1018 6 9.65604 0 0
8:53 am 08:53 Partly Cloudy with Mist and Fog 23 -5 21 -6.1 92 92 Calm 30.07 1018 5 8.0467 0 0
9:53 am 09:53 Cloudy 26 -3.3 20 -6.7 78 78 SW 7 11 30.07 1018 7 11.26538 0 0
10:53 am 10:53 Cloudy 28 -2.2 20 -6.7 72 72 WSW 7 11 30.09 1019 9 14.48406 0 0
11:53 am 11:53 Mostly Cloudy 32 0 20 -6.7 61 61 WSW 13 20 30.05 1018 10 16.0934 0 0
12:53 pm 12:53 Cloudy 32 0 20 -6.7 61 61 W 12 19 30.04 1017 10 16.0934 0 0
1:53 pm 13:53 Cloudy 32 0 21 -6.1 64 64 WSW 13 20 30.03 1017 10 16.0934 0 0
2:53 pm 14:53 Cloudy 32 0 21 -6.1 64 64 WSW 14 22 30.02 1017 10 16.0934 0 0
3:53 pm 15:53 Cloudy 32 0 22 -5.6 66 66 W 9 15 30.04 1017 10 16.0934 0 0
4:12 pm 16:12 Cloudy 32 0 22 -5.6 66 66 W 13 20 30.09 1019 10 16.0934 0 0
4:53 pm 16:53 Cloudy 32 0 22 -5.6 66 66 WSW 14 22 30.06 1018 10 16.0934 0 0
5:53 pm 17:53 Cloudy 32 0 21 -6.1 64 64 W 10 17 30.09 1019 10 16.0934 0 0
6:53 pm 18:53 Mostly Cloudy 31 -0.6 21 -6.1 67 67 WSW 7 11 30.11 1020 10 16.0934 0 0
7:53 pm 19:53 Clear 29 -1.7 21 -6.1 72 72 SW 3 6 30.11 1020 10 16.0934 0 0
8:53 pm 20:53 Cloudy 30 -1.1 22 -5.6 72 72 SSW 6 9 30.11 1020 10 16.0934 0 0
9:53 pm 21:53 Cloudy 32 0 23 -5 69 69 WSW 6 9 30.12 1020 10 16.0934 0 0
10:53 pm 22:53 Cloudy 32 0 24 -4.4 73 73 SW 6 9 30.12 1020 10 16.0934 0 0
11:53 pm 23:53 Cloudy 33 0.6 24 -4.4 70 70 SW 6 9 30.13 1020 10 16.0934 0 0

Powered by AerisWeather